Regional Weather Roundup
Issued by NWS

Home | Current Version | Previous Version | Graphics & Text | Print | Product List | Glossary On
Versions: 1 2 3 4 5 6 7 8 9 10 11 12 13 14 15 16 17 18 19 20 21 22 23 24 25 26 27 28 29 30 31 32 33 34 35 36 37 38 39 40 41 42 43 44 45 46 47 48 49 50
000
ASUS45 KBOU 031707
RWRCO

WEATHER ROUNDUP FOR COLORADO
NATIONAL WEATHER SERVICE DENVER/BOULDER CO
1000 AM MST TUE MAR 03 2015

NOTE: "FAIR" INDICATES FEW OR NO CLOUDS BELOW 12000 FEET WITH NO
SIGNIFICANT WEATHER AND/OR OBSTRUCTIONS TO VISIBILITY.

COZ001>005-013-030-031-031800-
...NORTHWEST COLORADO...

CITY           SKY/WX    TMP DP  RH WIND       PRES   REMARKS
CRAIG          LGT SNOW  27  24  89 E5        29.77F VSB 1   WCI  22
HAYDEN         CLOUDY    27  21  80 E5        29.76S VSB 3/4 WCI  21
MEEKER         PTSUNNY   36  24  62 SW12      29.76F
MOUNT WERNER   NOT AVBL
STEAMBOAT SPGS CLOUDY    27  21  77 CALM      29.75F
WALDEN         CLOUDY    27  16  63 S5        29.71F WCI  21
$$

COZ006>008-011-031800-
...WEST CENTRAL VALLEYS...

CITY           SKY/WX    TMP DP  RH WIND       PRES   REMARKS
GRAND JUNCTION FLURRIES  38  29  70 NW6       29.81S
MONTROSE       CLOUDY    37  23  56 S7        29.84F
EAGLE          MOSUNNY   36  23  60 SW15      29.77F
RIFLE          PTSUNNY   41  28  60 VRB3      29.79F
DELTA          CLOUDY    42  27  55 CALM      29.84S
NUCLA          CLOUDY    36  27  69 SW10      29.88F
$$

COZ017>023-064>068-031800-
...SOUTHWEST COLORADO...

CITY           SKY/WX    TMP DP  RH WIND       PRES   REMARKS
DURANGO        PTSUNNY   31  25  78 E7        29.87F WCI  24
CORTEZ         CLOUDY    38  27  64 CALM      29.88S
PAGOSA SPRINGS NOT AVBL
TELLURIDE      CLOUDY    28  15  58 CALM      29.82S
WOLF CREEK PAS   N/A    N/A N/A N/A MISG        N/A
$$

COZ009-010-012-014-032>034-037-058>063-031800-
...CENTRAL COLORADO...

CITY           SKY/WX    TMP DP  RH WIND       PRES   REMARKS
ASPEN          MOSUNNY   31  21  66 CALM      29.75F
BUENA VISTA    PTSUNNY   33   7  34 SW8       29.76S WCI  26
COPPER MTN     LGT SNOW  18   7  62 SW15G24   29.70F WCI   3
BERTHOUD PASS  CLOUDY     9   1  72 W23       29.69R HAZE    WCI -12
COTTONWOOD PAS PTSUNNY   28   7  40 W10G25    29.75R WCI  19
GUNNISON       MOSUNNY   30  16  55 S12       29.83F WCI  21
KREMMLING      SNOW      28  23  80 N5        29.76S VSB 1/2 WCI  23
LEADVILLE      PTSUNNY   21   4  47 S5        29.72S WCI  15
SALIDA         MOSUNNY   37  15  39 W16G23    29.86S
SUNLIGHT       LGT SNOW  21  18  86 CALM        N/A
WILKERSON PASS SUNNY     19  12  73 SW3       29.76S
$$

COZ069>075-031800-
...SAN LUIS VALLEY/SANGRE DE CRISTO MOUNTAINS...

CITY           SKY/WX    TMP DP  RH WIND       PRES   REMARKS
ALAMOSA        SUNNY     34  19  54 S15       29.81F WCI  24
LA VETA PASS   MOSUNNY   28  16  59 S9        29.79S WCI  20
SAGUACHE       MOSUNNY   32  16  51 CALM      29.81F
$$

COZ035-036-038>040-031800-
...NORTHERN COLORADO FRONT RANGE...

CITY           SKY/WX    TMP DP  RH WIND       PRES   REMARKS
DENVER INTL AP LGT SNOW  20  16  84 N17       29.90R FOG     WCI   5
DMNS CITY PARK   N/A     22  17  80 NE9G16    29.91R WCI  11
AURORA         LGT SNOW  21  17  86 NE13      29.90R FOG     WCI   8
FRONT RANGE AP LGT SNOW  23  19  86 N10       29.90R WCI  12
ERIE MUNI ARPT LGT SNOW  23  18  80 NE10      29.92R WCI  13
BOULDER MUN AP LGT SNOW  25  21  86 NE7       29.91R VSB 3/4 WCI  17
CENTENNIAL     FLURRIES  21  17  84 NE10      29.88R WCI  10
BROOMFIELD     NOT AVBL
FORT COLLINS   PTSUNNY   19  14  79 N10       29.95R VSB 3/4 WCI   8
LONGMONT       LGT SNOW  28  18  65 NE10      29.95R WCI  19
$$

COZ041-046-047-076>085-087-088-031800-
...PIKES PEAK/PALMER DIVIDE AND SOUTHERN FOOTHILLS...

CITY           SKY/WX    TMP DP  RH WIND       PRES   REMARKS
COLO. SPRINGS  PTSUNNY   28  22  78 N23       29.81R FOG     WCI  14
A. F. ACADEMY  FLURRIES  24  20  85 N26       29.77F WCI   7
ELLICOTT       NOT AVBL
FALCON         CLOUDY    23  21  94 N21G30    29.79F FOG     WCI   8
FORT CARSON    PTSUNNY   31  22  71 N21G28    29.79R WCI  18
LIMON          MIX PCPN  24  21  88 N23       29.85S FOG     WCI   9
MONUMENT HILL  SNOW      19  19 100 N8        29.81S VSB 1/2 WCI   9
TRINIDAD       MOSUNNY   48  16  27 N7        29.77S
$$

COZ042>045-048>051-090-091-031800-
...NORTHEAST COLORADO...

CITY           SKY/WX    TMP DP  RH WIND       PRES   REMARKS
GREELEY ARPT   PTSUNNY   19   9  63 N12       29.95R WCI   7
AKRON          CLOUDY    21  16  81 N18G26    29.91R WCI   6
BURLINGTON     CLOUDY    27  22  81 N21G31    29.87R WCI  13
WRAY           CLOUDY    26  17  68 N21G26    29.93R WCI  12
STERLING       CLOUDY    23  12  63 NE17G23   29.95R WCI   9
HOLYOKE        NOT AVBL
FORT MORGAN    CLOUDY    21  12  67 N17       29.95R WCI   7
$$

COZ086-089-092>099-031800-
...SOUTHEAST COLORADO...

CITY           SKY/WX    TMP DP  RH WIND       PRES   REMARKS
PUEBLO         MOSUNNY   39  28  64 NE26G35   29.78R
LA JUNTA       PTSUNNY   37  29  72 NE23G32   29.81R
LAMAR          CLOUDY    35  29  78 NE18G26   29.84R WCI  24
SPRINGFIELD      N/A     50  27  40 W13       29.78S
$$



USA.gov is the U.S. government's official web portal to all federal, state and local government web resources and services.